LEGION 1

Last updated on Mon Sep 07 2026 00:02:46 GMT+0000 (Coordinated Universal Time)

1 59625U 24081A 26249.62801916 .00002348 00000+0 12158-3 0 9994 2 59625 97.4964 326.6178 0010871 86.7639 273.4838 15.17148853129883
UTC large
Height (km)
Speed (km/s)
/
Latitude / Longitude
Inclination (degrees)
Orbital Period (minutes)
Azimuth
Elevation
Range (km)
Doppler Factor

Next 0 passes for location: London (51.5072 / 0.1276)

No passes found over London.
LEGION 1